Weather Roundup
Issued by NWS

Home | Current Version | Previous Version | Graphics & Text | Print | Product List | Glossary Off
Versions: 1 2 3 4 5 6 7 8 9 10 11 12 13 14 15 16 17 18 19 20 21 22 23 24 25 26 27 28 29 30 31 32 33 34 35 36 37 38 39 40 41 42 43 44 45 46 47 48 49 50

893
NZUS93 KARX 211659
HRRWXR

CURRENT HOURLY OBSERVATIONS ACROSS
MUCH OF THE UPPER MISSISSIPPI VALLEY
NATIONAL WEATHER SERVICE LA CROSSE WI
1100 AM CST TUE NOV 21 2017


...SOUTHEAST MINNESOTA...


CITY           SKY/WX    TMP DP  RH WIND       PRES   REMARKS
ROCHESTER      PTSUNNY   26  14  60 NW26G32   29.99R WCI  10
ROCHESTER/MAYO FAIR      26  11  53 NW16G25   30.00R WCI  13
WINONA           N/A     30  16  55 NW17G31   29.99R WCI  18
AUSTIN         NOT AVBL
ALBERT LEA     PTSUNNY   25  10  54 NW14G29   30.05R WCI  13
DODGE CENTER   SUNNY     25  10  54 NW23G33   30.01R WCI  10
PRESTON        CLOUDY    26  13  59 NW16G25   29.98R WCI  13
OWATONNA       MOSUNNY   27  12  54 NW25G32   30.05R WCI  11
FARIBAULT      MOSUNNY   25  12  58 NW15G29   30.06R WCI  12
$$

...ELSEWHERE IN MINNESOTA...


CITY           SKY/WX    TMP DP  RH WIND       PRES   REMARKS
MINNEAPOLIS    MOSUNNY   25  12  58 NW20G29   30.06R WCI  11
INTNL FALLS    FLURRIES  15   7  70 NW16G23   30.04R WCI  -1
DULUTH         PTSUNNY   19   9  65 N17G26    29.94R WCI   4
RED WING       CLOUDY    27   7  43 N16G25    30.03R WCI  14
REDWOOD FALLS  SUNNY     23   8  52 NW22G36   30.17R WCI   8
MANKATO        CLOUDY    24  14  65 NW20G26   30.10R WCI  10
WORTHINGTON    SUNNY     22  11  62 NW22G33   30.17R WCI   6
FAIRMONT       MOSUNNY   25  14  63 NW28G38   30.12R WCI   9
$$

...SOUTHWEST WISCONSIN...


CITY           SKY/WX    TMP DP  RH WIND       PRES   REMARKS
LA CROSSE      CLOUDY    32  16  51 NW24G30   29.95R WCI  19
PRAIRIE DU CHI CLOUDY    31  16  53 W20       29.94R WCI  19
BOSCOBEL       CLOUDY    33  16  49 W12G21    29.93R WCI  24
LONE ROCK      CLOUDY    33  17  51 NW20G28   29.91R WCI  21
PLATTEVILLE    CLOUDY    32  20  62 NW18G30   29.90R WCI  20
FORT MC COY    CLOUDY    30  15  51 NW18G26   29.91R WCI  18
CAMP DOUGLAS   PTSUNNY   30  12  47 NW23G29   29.88R WCI  17
MAUSTON-NEW LI CLOUDY    30  15  53 NW16G28   29.86R WCI  19
VIROQUA        CLOUDY    30  19  65 NW13G24   29.89R WCI  20
WIS DELLS      CLOUDY    30  13  50 NW14G26   29.86R WCI  19
$$

...ELSEWHERE IN WISCONSIN...


CITY           SKY/WX    TMP DP  RH WIND       PRES   REMARKS
MILWAUKEE      CLOUDY    42  17  36 NW17G25   29.78R
MADISON        CLOUDY    31  15  52 NW20G32   29.86R WCI  19
GREEN BAY      CLOUDY    35  22  58 NW22G28   29.76R WCI  23
EAU CLAIRE     NOT AVBL
BLACK RVR FLS  CLOUDY    30  10  43 NW16G25   29.91R WCI  19
MEDFORD        CLOUDY    24  10  56 NW17G24   29.83R WCI  10
WAUSAU         CLOUDY    27  12  53 NW22G33   29.81R WCI  13
WIS RAPIDS     CLOUDY    29  15  56 NW23G31   29.86R WCI  15
MARSHFIELD     CLOUDY    27  12  53 NW22G31   29.84R WCI  13
RICE LAKE      CLOUDY    24  12  59 NW12G28   29.97R WCI  13
$$

...NORTHEAST IOWA...


CITY           SKY/WX    TMP DP  RH WIND       PRES   REMARKS
WATERLOO       MOSUNNY   27  14  58 NW29G36   30.02R WCI  11
DUBUQUE        CLOUDY    29  16  58 NW21G31   29.94R WCI  16
DECORAH        CLOUDY    28  18  64 NW20G30   29.95R WCI  15
MASON CITY     PTSUNNY   24  12  60 NW25G38   30.07R WCI   8
CHARLES CITY   CLOUDY    27  14  59 NW23G33   30.03R WCI  12
OELWEIN        CLOUDY    28  18  64 NW26G37   30.00R WCI  13
$$

...ELSEWHERE IN IOWA...


CITY           SKY/WX    TMP DP  RH WIND       PRES   REMARKS
DES MOINES     MOSUNNY   33  14  45 NW21G33   30.09R WCI  21
IOWA CITY      CLOUDY    36  19  50 NW21G33   30.01R WCI  25
FORT DODGE     SUNNY     28  15  58 NW12G25   30.12R WCI  18
MARSHALLTOWN   SUNNY     29  16  58 NW25G38   30.06R WCI  14
CEDAR RAPIDS   CLOUDY    30  16  56 NW25G32   30.00R WCI  16
$$

...NORTHERN ILLINOIS...


CITY           SKY/WX    TMP DP  RH WIND       PRES   REMARKS
CHICAGO-OHARE  CLOUDY    43  25  49 W15G24    29.80R
CHICAGO-MIDWAY NOT AVBL
MOLINE         CLOUDY    38  20  48 NW25G36   29.93R WCI  27
ROCKFORD       CLOUDY    37  18  46 NW20G28   29.88R WCI  27
PEORIA         CLOUDY    44  22  41 NW13G28   29.92R
$$

NOTE: "FAIR" INDICATES FEW OR NO CLOUDS BELOW 12,000 FEET WITH NO
SIGNIFICANT WEATHER AND/OR OBSTRUCTIONS TO VISIBILITY. WIND
SPEEDS ARE IN MILES-PER-HOUR.




USA.gov is the U.S. government's official web portal to all federal, state and local government web resources and services.